WA9NNN-10 Weather Reports


time (UTC)temp
C
wind
direction
speed
KPH
gust
KPH
rain 1hr
cm
rain 24hr
cm
rain mn
cm
humidity
%
barometer
mb
20260504050637 14 195 6.4 3.2 0.00 0.00 0.00 66 1005.3
20260504050138 14 214 3.2 4.8 0.00 0.00 0.00 66 1005.3
20260504045637 14 212 4.8 4.8 0.00 0.00 0.00 66 1005.2
20260504045138 14 218 6.4 4.8 0.00 0.00 0.00 65 1005.2
20260504044637 15 200 3.2 4.8 0.00 0.00 0.00 65 1005.3
20260504044137 15 195 3.2 4.8 0.00 0.00 0.00 65 1005.2
20260504043637 15 202 3.2 4.8 0.00 0.00 0.00 64 1005.2
20260504043137 15 212 3.2 4.8 0.00 0.00 0.00 64 1005.3
20260504042636 15 203 3.2 4.8 0.00 0.00 0.00 64 1005.3
20260504042137 15 191 6.4 4.8 0.00 0.00 0.00 63 1005.3
20260504041637 15 186 6.4 4.8 0.00 0.00 0.00 63 1005.2
20260504041137 15 210 4.8 4.8 0.00 0.00 0.00 63 1005.3
20260504040637 15 220 4.8 4.8 0.00 0.00 0.00 62 1005.4
20260504040137 15 203 1.6 4.8 0.00 0.00 0.00 62 1005.5
20260504035636 15 218 1.6 3.2 0.00 0.00 0.00 62 1005.6
20260504035137 15 186 1.6 4.8 0.00 0.00 0.00 61 1005.6
20260504034637 15 167 4.8 4.8 0.00 0.00 0.00 61 1005.7
20260504034137 15 217 4.8 4.8 0.00 0.00 0.00 61 1005.7
20260504033637 16 208 4.8 4.8 0.00 0.00 0.00 61 1005.8
20260504033137 16 216 4.8 4.8 0.00 0.00 0.00 60 1005.9
20260504032637 16 217 6.4 4.8 0.00 0.00 0.00 60 1006.0
20260504032137 16 195 6.4 4.8 0.00 0.00 0.00 60 1006.0
20260504031636 16 212 3.2 4.8 0.00 0.00 0.00 59 1006.1
20260504031137 16 197 4.8 4.8 0.00 0.00 0.00 59 1006.0
20260504030637 16 206 3.2 4.8 0.00 0.00 0.00 58 1006.1
20260504030137 16 210 1.6 6.4 0.00 0.00 0.00 58 1006.1
20260504025637 16 200 3.2 4.8 0.00 0.00 0.00 58 1006.1
20260504025137 16 186 9.7 4.8 0.00 0.00 0.00 58 1006.1
20260504024636 16 234 3.2 4.8 0.00 0.00 0.00 57 1006.0
20260504024137 16 181 3.2 4.8 0.00 0.00 0.00 57 1006.1
20260504023636 16 193 6.4 4.8 0.00 0.00 0.00 57 1006.0
20260504023137 17 235 6.4 4.8 0.00 0.00 0.00 56 1006.0
20260504022637 17 212 4.8 6.4 0.00 0.00 0.00 56 1006.0
20260504022137 17 217 8.0 4.8 0.00 0.00 0.00 56 1006.0
20260504021637 17 173 6.4 4.8 0.00 0.00 0.00 55 1006.0
20260504021137 17 207 6.4 6.4 0.00 0.00 0.00 55 1006.0
20260504020637 17 192 6.4 6.4 0.00 0.00 0.00 55 1005.9
20260504020137 17 194 3.2 6.4 0.00 0.00 0.00 54 1005.8
20260504015637 17 213 4.8 4.8 0.00 0.00 0.00 54 1005.7
20260504015137 17 186 3.2 6.4 0.00 0.00 0.00 53 1005.6
20260504014636 17 222 8.0 6.4 0.00 0.00 0.00 53 1005.5
20260504014137 17 202 4.8 8.0 0.00 0.00 0.00 53 1005.4
20260504013637 17 205 4.8 8.0 0.00 0.00 0.00 53 1005.4
20260504013137 18 182 3.2 6.4 0.00 0.00 0.00 52 1005.3
20260504012636 18 213 9.7 6.4 0.00 0.00 0.00 52 1005.2
20260504012137 18 189 4.8 4.8 0.00 0.00 0.00 51 1005.1
20260504011636 18 212 3.2 6.4 0.00 0.00 0.00 51 1005.1
20260504011137 18 219 3.2 6.4 0.00 0.00 0.00 50 1005.0
20260504010636 18 219 4.8 6.4 0.00 0.00 0.00 50 1005.1
20260504010137 18 210 6.4 6.4 0.00 0.00 0.00 50 1005.2
20260504005636 18 217 4.8 6.4 0.00 0.00 0.00 49 1005.2
20260504005137 18 219 8.0 6.4 0.00 0.00 0.00 49 1005.2
20260504004636 19 190 9.7 6.4 0.00 0.00 0.00 48 1005.2
20260504004137 19 217 6.4 8.0 0.00 0.00 0.00 48 1005.2
20260504003638 19 190 6.4 8.0 0.00 0.00 0.00 47 1005.2
20260504003137 20 199 11.3 8.0 0.00 0.00 0.00 47 1005.2
20260504002636 20 195 3.2 9.7 0.00 0.00 0.00 46 1005.1
20260504002137 20 206 6.4 9.7 0.00 0.00 0.00 46 1005.1
20260504001637 20 223 11.3 9.7 0.00 0.00 0.00 46 1005.1
20260504001137 20 217 8.0 9.7 0.00 0.00 0.00 45 1005.1
20260504000637 20 181 14.5 9.7 0.00 0.00 0.00 45 1005.2
20260504000137 20 186 11.3 9.7 0.00 0.00 0.00 45 1005.0
20260503235638 20 220 8.0 9.7 0.00 0.00 0.00 45 1005.0
20260503235137 20 240 6.4 9.7 0.00 0.00 0.00 45 1005.0
20260503234636 20 164 9.7 9.7 0.00 0.00 0.00 44 1005.1
20260503234137 20 221 9.7 9.7 0.00 0.00 0.00 45 1005.1
20260503233636 20 186 6.4 11.3 0.00 0.00 0.00 45 1005.1
20260503233137 20 215 11.3 9.7 0.00 0.00 0.00 45 1005.2
20260503232637 20 214 11.3 9.7 0.00 0.00 0.00 45 1005.3
20260503232137 20 212 8.0 11.3 0.00 0.00 0.00 45 1005.3
20260503231637 20 235 8.0 11.3 0.00 0.00 0.00 44 1005.4
20260503231137 20 214 8.0 11.3 0.00 0.00 0.00 44 1005.4
20260503230637 20 215 16.1 11.3 0.00 0.00 0.00 44 1005.4
20260503230137 20 230 20.9 11.3 0.00 0.00 0.00 44 1005.5
20260503225137 20 108 6.4 11.3 0.00 0.00 0.00 44 1005.8
20260503224636 20 233 8.0 14.5 0.00 0.00 0.00 44 1005.8
20260503224137 20 217 9.7 12.9 0.00 0.00 0.00 44 1005.9
20260503223636 20 186 12.9 12.9 0.00 0.00 0.00 43 1005.9
20260503223137 20 183 14.5 12.9 0.00 0.00 0.00 43 1006.0
20260503222637 20 227 11.3 14.5 0.00 0.00 0.00 43 1006.1
20260503222137 20 221 12.9 12.9 0.00 0.00 0.00 43 1006.0
20260503221637 20 192 11.3 12.9 0.00 0.00 0.00 43 1006.1
20260503221137 19 211 9.7 12.9 0.00 0.00 0.00 43 1006.1
20260503220636 19 218 22.5 14.5 0.00 0.00 0.00 43 1006.2
20260503220137 19 236 12.9 14.5 0.00 0.00 0.00 43 1006.2
20260503215636 20 155 11.3 12.9 0.00 0.00 0.00 42 1006.3
20260503215137 20 221 16.1 14.5 0.00 0.00 0.00 41 1006.4
20260503214636 20 228 17.7 14.5 0.00 0.00 0.00 42 1006.3
20260503214137 20 235 19.3 14.5 0.00 0.00 0.00 41 1006.4
20260503213636 20 200 30.6 14.5 0.00 0.00 0.00 41 1006.3
20260503213137 19 188 8.0 14.5 0.00 0.00 0.00 42 1006.5
20260503212636 19 198 12.9 14.5 0.00 0.00 0.00 41 1006.5
20260503212137 18 226 8.0 14.5 0.00 0.00 0.00 42 1006.6
20260503211638 18 179 25.7 14.5 0.00 0.00 0.00 42 1006.8
20260503211137 18 189 11.3 12.9 0.00 0.00 0.00 42 1006.7
20260503210636 18 207 20.9 14.5 0.00 0.00 0.00 42 1006.9
20260503210136 18 244 8.0 16.1 0.00 0.00 0.00 42 1006.9
20260503205636 18 227 17.7 17.7 0.00 0.00 0.00 41 1007.0
20260503205136 18 203 17.7 19.3 0.00 0.00 0.00 41 1007.1
20260503204636 18 188 25.7 16.1 0.00 0.00 0.00 40 1007.3
20260503204136 19 203 30.6 12.9 0.00 0.00 0.00 40 1007.4
20260503203636 20 212 14.5 12.9 0.00 0.00 0.00 41 1007.3
20260503203137 19 193 14.5 12.9 0.00 0.00 0.00 41 1007.4
20260503202636 19 202 14.5 16.1 0.00 0.00 0.00 41 1007.4
20260503202137 19 226 12.9 17.7 0.00 0.00 0.00 43 1007.5
20260503201637 18 191 35.4 17.7 0.00 0.00 0.00 43 1007.6
20260503201136 18 179 32.2 19.3 0.00 0.00 0.00 43 1007.9
20260503200636 18 219 17.7 20.9 0.00 0.00 0.00 43 1008.1
20260503200136 18 221 25.7 19.3 0.00 0.00 0.00 44 1007.9
20260503195636 18 216 16.1 16.1 0.00 0.00 0.00 44 1008.1
20260503195137 18 211 20.9 14.5 0.00 0.00 0.00 46 1008.1
20260503194636 18 257 14.5 14.5 0.00 0.00 0.00 48 1008.2
20260503194138 18 189 8.0 14.5 0.00 0.00 0.00 48 1008.3
20260503193636 18 212 17.7 12.9 0.00 0.00 0.00 47 1008.4
20260503193137 18 112 9.7 14.5 0.00 0.00 0.00 47 1008.3
20260503192636 17 210 6.4 14.5 0.00 0.00 0.00 49 1008.6
20260503192136 17 181 20.9 12.9 0.00 0.00 0.00 47 1008.7
20260503191636 17 198 14.5 12.9 0.00 0.00 0.00 48 1008.9
20260503191137 17 221 12.9 12.9 0.00 0.00 0.00 49 1009.0
20260503190636 16 231 14.5 11.3 0.00 0.00 0.00 50 1009.1
20260503190137 16 212 9.7 11.3 0.00 0.00 0.00 52 1009.1
20260503185636 15 203 6.4 11.3 0.00 0.00 0.00 55 1009.1
20260503185136 15 192 17.7 12.9 0.00 0.00 0.00 55 1009.3
20260503184637 14 210 9.7 11.3 0.00 0.00 0.00 55 1009.4
20260503184136 14 189 8.0 11.3 0.00 0.00 0.00 57 1009.5
20260503183637 14 224 6.4 11.3 0.00 0.00 0.00 58 1009.5
20260503183136 13 165 11.3 11.3 0.00 0.00 0.00 59 1009.7
20260503182636 13 215 4.8 12.9 0.00 0.00 0.00 60 1009.9
20260503182136 13 207 17.7 12.9 0.00 0.00 0.00 59 1009.8
20260503181636 13 188 6.4 12.9 0.00 0.00 0.00 59 1009.9
20260503181137 13 207 9.7 11.3 0.00 0.00 0.00 59 1010.3
20260503180636 13 212 6.4 11.3 0.00 0.00 0.00 60 1010.6
20260503180136 13 215 12.9 12.9 0.00 0.00 0.00 60 1011.0
20260503175637 13 182 11.3 12.9 0.00 0.00 0.00 61 1011.1
20260503175136 13 217 14.5 16.1 0.00 0.00 0.00 60 1011.2
20260503174636 13 204 8.0 14.5 0.00 0.00 0.00 61 1011.4
20260503174136 13 209 19.3 12.9 0.00 0.00 0.00 61 1011.5
20260503173636 13 130 17.7 11.3 0.00 0.00 0.00 63 1011.7
20260503173137 13 159 4.8 11.3 0.00 0.00 0.00 64 1011.7
20260503172636 12 206 4.8 11.3 0.00 0.00 0.00 65 1011.9
20260503172137 12 193 14.5 12.9 0.00 0.00 0.00 66 1012.0
20260503171636 12 206 8.0 12.9 0.00 0.00 0.00 67 1012.1
20260503171137 12 193 12.9 11.3 0.00 0.00 0.00 68 1012.3
20260503170636 11 229 8.0 9.7 0.00 0.00 0.00 69 1012.2
20260503170137 11 184 16.1 9.7 0.00 0.00 0.00 69 1012.3
20260503160136 13 212 20.9 16.1 0.00 0.00 0.00 55 1013.1
20260503150637 13 198 12.9 11.3 0.00 0.00 0.00 55 1012.8
20260503150136 13 195 12.9 9.7 0.00 0.00 0.00 55 1012.7
20260503140137 12 217 8.0 9.7 0.00 0.00 0.00 54 1013.7
20260503131138 11 222 14.5 9.7 0.00 0.00 0.00 55 1014.0
20260503130637 11 287 8.0 9.7 0.00 0.00 0.00 55 1014.0
20260503130137 11 213 12.9 9.7 0.00 0.00 0.00 54 1014.1
20260503120137 10 224 11.3 11.3 0.00 0.00 0.00 56 1013.7
20260503110637 8 252 6.4 8.0 0.00 0.00 0.00 58 1013.6
20260503110137 8 229 9.7 8.0 0.00 0.00 0.00 58 1013.7
20260503100138 8 217 8.0 6.4 0.00 0.00 0.00 58 1014.0
20260503090137 7 169 6.4 6.4 0.00 0.00 0.00 57 1014.1
20260503081636 8 195 3.2 4.8 0.00 0.00 0.00 56 1014.3
20260503081137 8 208 3.2 4.8 0.00 0.00 0.00 56 1014.3
20260503080637 8 219 9.7 4.8 0.00 0.00 0.00 56 1014.3
20260503080137 8 188 3.2 4.8 0.00 0.00 0.00 56 1014.4
20260503072637 8 192 8.0 4.8 0.00 0.00 0.00 56 1014.5
20260503072137 8 216 8.0 4.8 0.00 0.00 0.00 56 1014.5
20260503071636 8 227 6.4 4.8 0.00 0.00 0.00 56 1014.5
20260503071137 8 223 3.2 4.8 0.00 0.00 0.00 55 1014.6
20260503070636 8 217 3.2 4.8 0.00 0.00 0.00 55 1014.6
20260503070137 8 205 4.8 4.8 0.00 0.00 0.00 55 1014.7
20260503060137 8 188 6.4 4.8 0.00 0.00 0.00 54 1015.1
20260503054636 8 188 8.0 4.8 0.00 0.00 0.00 54 1015.2
20260503054137 8 196 4.8 4.8 0.00 0.00 0.00 54 1015.3
20260503053637 8 210 4.8 4.8 0.00 0.00 0.00 54 1015.3
20260503053137 8 212 6.4 4.8 0.00 0.00 0.00 54 1015.4
20260503052637 8 198 3.2 4.8 0.00 0.00 0.00 54 1015.4
20260503052137 8 220 3.2 4.8 0.00 0.00 0.00 54 1015.5